Stations météo

réclame
Mon MeteoGroup
Aultbea, Grande-Bretagne (3034): Température de l'air & dewpoint: 17.09.2019 06:00:00 - 23.09.2019 06:00:00 (BST)Aultbea, Grande-Bretagne (3034): Température de l'air -20cm & Température de l'air -100cm: 17.09.2019 06:00:00 - 23.09.2019 06:00:00 (BST)Aultbea, Grande-Bretagne (3034): Vitesse du vent: 17.09.2019 06:00:00 - 23.09.2019 06:00:00 (BST)Aultbea, Grande-Bretagne (3034): Direction du vent: 17.09.2019 06:00:00 - 23.09.2019 06:00:00 (BST)Aultbea, Grande-Bretagne (3034): reduced air pressure: 17.09.2019 06:00:00 - 23.09.2019 06:00:00 (BST)Aultbea, Grande-Bretagne (3034): visibility: 17.09.2019 06:00:00 - 23.09.2019 06:00:00 (BST)Aultbea, Grande-Bretagne (3034): Quantités de précipitations: 17.09.2019 06:00:00 - 23.09.2019 06:00:00 (BST)
Date & Time tt [°C] td [°C] tt -20cm [°C] tt -100cm [°C] ff [km/h] ff [knt] dd ppp [hPa] vv [km] rr [mm]
23.09.2019 06:00:00 14,6 14,0 - - 8 4 SSE 1001,5 9 0,4
23.09.2019 05:00:00 14,5 14,0 - - 2 1 E 1001,6 10 0,0
23.09.2019 04:00:00 14,5 13,9 - - 4 2 E 1001,5 10 0,0
23.09.2019 03:00:00 14,6 13,8 - - 4 2 NW 1001,8 12 0,0
23.09.2019 02:00:00 15,2 14,1 - - 5 3 NNW 1001,7 16 0,2
23.09.2019 01:00:00 15,6 14,4 - - 4 2 ESE 1001,6 6 1,8
23.09.2019 00:00:00 16,8 14,2 - - 11 6 E 1001,2 16 0,4
22.09.2019 23:00:00 19,0 13,7 - - 16 9 E 1000,8 30 0,0
22.09.2019 22:00:00 18,7 13,8 - - 15 8 SE 1000,7 40 0,0
22.09.2019 21:00:00 18,2 13,8 - - 8 4 E 1000,5 40 0,0
22.09.2019 20:00:00 18,3 13,5 - - 9 5 ESE 1000,7 45 0,0
22.09.2019 19:00:00 18,5 14,1 - - 8 4 SE 1000,7 35 0,0
22.09.2019 18:00:00 18,2 13,8 - - 5 3 E 1000,7 30 0,0
22.09.2019 17:00:00 17,8 13,8 - - 15 8 SE 1000,6 40 0,0
22.09.2019 16:00:00 19,7 13,2 - - 8 4 SE 1000,9 35 0,0
22.09.2019 15:00:00 19,4 12,7 - - 18 10 SE 1001,0 40 0,0
22.09.2019 14:00:00 20,3 12,1 - - 15 8 SSE 1000,8 40 0,0
22.09.2019 13:00:00 19,7 11,6 - - 9 5 SE 1001,1 25 0,0
22.09.2019 12:00:00 18,1 10,8 - - 5 3 S 1001,5 45 0,0
22.09.2019 11:00:00 17,6 10,6 - - 5 3 SSW 1001,5 45 0,0
22.09.2019 10:00:00 16,2 10,5 13,5 13,0 4 2 S 1001,8 35 0,0
22.09.2019 09:00:00 14,9 9,9 - - 2 1 ESE 1001,8 45 0,0
22.09.2019 08:00:00 13,6 9,0 - - 8 4 E 1001,9 45 0,0
22.09.2019 07:00:00 12,9 8,3 - - 8 4 SE 1002,3 45 0,0
22.09.2019 06:00:00 14,7 9,0 - - 11 6 S 1002,5 45 0,0
22.09.2019 05:00:00 13,9 8,9 - - 5 3 SW 1003,0 50 0,0
22.09.2019 04:00:00 14,2 9,6 - - 8 4 E 1003,3 40 0,0
22.09.2019 03:00:00 12,6 8,8 - - 2 1 ESE 1003,6 5 0,0
22.09.2019 02:00:00 13,2 9,5 - - 4 2 E 1004,0 50 0,0
22.09.2019 01:00:00 13,6 9,3 - - 2 1 ENE 1004,4 35 0,0
22.09.2019 00:00:00 14,4 9,3 - - 8 4 E 1004,6 27 0,0
21.09.2019 23:00:00 16,4 9,3 - - 8 4 E 1004,9 40 0,0
21.09.2019 22:00:00 18,2 9,2 - - 9 5 E 1005,1 45 0,0
21.09.2019 21:00:00 17,5 8,9 - - 9 5 ESE 1005,4 45 0,0
21.09.2019 20:00:00 18,7 8,6 - - 5 3 E 1005,4 45 0,0
21.09.2019 19:00:00 20,4 8,6 - - 9 5 E 1005,1 45 0,0
21.09.2019 18:00:00 22,4 9,4 - - 9 5 SE 1005,3 40 0,0
21.09.2019 17:00:00 23,5 8,6 - - 9 5 SE 1005,6 45 0,0
21.09.2019 16:00:00 24,2 7,9 - - 15 8 SE 1006,2 35 0,0
21.09.2019 15:00:00 23,7 8,0 - - 22 12 ESE 1006,8 45 0,0
21.09.2019 14:00:00 23,5 8,0 - - 18 10 SE 1007,8 40 0,0
21.09.2019 13:00:00 22,4 9,2 - - 16 9 SE 1008,6 40 0,0
21.09.2019 12:00:00 21,7 8,9 - - 21 11 ESE 1009,0 28 0,0
21.09.2019 11:00:00 21,0 8,7 - - 21 11 ESE 1009,6 30 0,0
21.09.2019 10:00:00 19,5 9,3 13,0 13,0 16 9 ESE 1010,2 45 0,0
21.09.2019 09:00:00 16,8 9,5 - - 8 4 ESE 1010,7 50 0,0
21.09.2019 08:00:00 13,8 8,4 - - 9 5 ESE 1011,2 50 0,0
21.09.2019 07:00:00 13,8 9,2 - - 13 7 ESE 1011,5 50 0,0
21.09.2019 06:00:00 13,7 9,1 - - 4 2 E 1011,7 50 0,0
21.09.2019 05:00:00 14,1 8,5 - - 4 2 W 1012,1 50 0,0
21.09.2019 04:00:00 12,5 8,4 - - 4 2 NNW 1012,9 50 0,0
21.09.2019 03:00:00 12,6 8,1 - - 8 4 ESE 1013,5 50 0,0
21.09.2019 02:00:00 10,1 8,4 - - 5 3 E 1014,2 50 0,0
21.09.2019 01:00:00 9,7 8,4 - - 4 2 SE 1014,8 45 0,0
21.09.2019 00:00:00 9,5 8,6 - - 2 1 NE 1015,4 50 0,0
20.09.2019 23:00:00 10,2 8,9 - - 2 1 ESE 1016,1 45 0,0
20.09.2019 22:00:00 10,9 8,8 - - 2 1 ENE 1016,8 40 0,0
20.09.2019 21:00:00 12,9 9,0 - - 4 2 S 1017,3 50 0,0
20.09.2019 20:00:00 16,4 9,7 - - 13 7 NE 1017,8 45 0,0
20.09.2019 19:00:00 17,1 10,2 - - 11 6 ENE 1018,0 45 0,0
20.09.2019 18:00:00 20,3 11,3 - - 4 2 SE 1018,5 50 0,0
20.09.2019 17:00:00 20,6 10,5 - - 8 4 SW 1019,3 45 0,0
20.09.2019 16:00:00 21,9 10,6 - - 2 1 SSW 1019,8 45 0,0
20.09.2019 15:00:00 20,3 10,7 - - 9 5 SSW 1020,6 28 0,0
20.09.2019 14:00:00 20,5 9,4 - - 5 3 W 1021,5 30 0,0
20.09.2019 13:00:00 18,2 11,0 - - 8 4 WNW 1022,1 26 0,0
20.09.2019 12:00:00 18,9 10,4 - - 5 3 SW 1022,8 30 0,0
20.09.2019 11:00:00 18,2 10,7 - - 5 3 SE 1023,1 35 0,0
20.09.2019 10:00:00 16,0 9,8 12,7 13,0 9 5 SE 1023,5 45 0,0
20.09.2019 09:00:00 13,9 8,0 - - 8 4 E 1023,9 40 0,0
20.09.2019 08:00:00 12,5 6,5 - - 11 6 ENE 1024,1 50 0,0
20.09.2019 07:00:00 10,6 6,3 - - 11 6 SE 1024,3 50 0,0
20.09.2019 06:00:00 10,1 5,6 - - 8 4 E 1024,4 50 0,0
20.09.2019 05:00:00 8,8 5,4 - - 9 5 E 1025,1 50 0,0
20.09.2019 04:00:00 8,6 5,9 - - 9 5 E 1025,5 50 0,0
20.09.2019 03:00:00 9,7 6,6 - - 8 4 E 1025,9 45 0,0
20.09.2019 02:00:00 7,6 5,8 - - 9 5 ESE 1026,4 45 0,0
20.09.2019 01:00:00 10,1 8,3 - - 9 5 S 1027,0 50 0,0
20.09.2019 00:00:00 10,1 8,2 - - 8 4 E 1027,5 50 0,0
19.09.2019 23:00:00 12,0 9,0 - - 18 10 SSW 1027,8 50 0,0
19.09.2019 22:00:00 12,8 8,9 - - 16 9 SSW 1027,8 50 0,0
19.09.2019 21:00:00 12,9 9,6 - - 18 10 SW 1027,7 50 0,0
19.09.2019 20:00:00 13,0 10,5 - - 18 10 S 1027,8 50 0,0
19.09.2019 19:00:00 14,1 10,5 - - 22 12 SW 1028,0 50 0,0
19.09.2019 18:00:00 14,7 11,1 - - 18 10 SW 1028,0 50 0,0
19.09.2019 17:00:00 14,7 11,2 - - 24 13 SW 1028,1 50 0,0
19.09.2019 16:00:00 14,0 11,0 - - 28 15 SW 1028,3 50 0,0
19.09.2019 15:00:00 14,3 11,6 - - 28 15 SW 1028,8 50 0,0
19.09.2019 14:00:00 14,3 11,1 - - 28 15 SW 1029,1 30 0,0
19.09.2019 13:00:00 14,3 11,7 - - 26 14 SW 1028,9 50 0,0
19.09.2019 12:00:00 13,4 11,9 - - 28 15 SSW 1029,2 7 0,0
19.09.2019 11:00:00 13,8 11,5 - - 24 13 SSW 1029,3 45 0,0
19.09.2019 10:00:00 13,4 11,4 13,2 13,0 24 13 SSW 1029,2 50 0,0
19.09.2019 09:00:00 12,9 11,6 - - 21 11 SSW 1029,1 45 0,0
19.09.2019 08:00:00 12,8 11,6 - - 15 8 SW 1028,6 45 0,0
19.09.2019 07:00:00 12,9 11,7 - - 13 7 WSW 1028,6 18 0,0
19.09.2019 06:00:00 13,0 11,8 - - 11 6 SW 1028,4 45 0,0
19.09.2019 05:00:00 12,9 12,0 - - 13 7 SW 1028,5 35 0,0
19.09.2019 04:00:00 13,1 11,8 - - 15 8 SW 1028,7 50 0,0
19.09.2019 03:00:00 12,9 12,1 - - 11 6 WSW 1028,8 45 0,0
19.09.2019 02:00:00 13,0 12,0 - - 13 7 WSW 1028,9 50 0,0
19.09.2019 01:00:00 13,0 12,5 - - 9 5 WSW 1029,1 19 0,0
19.09.2019 00:00:00 13,1 12,7 - - 13 7 W 1029,2 12 0,0
18.09.2019 23:00:00 13,4 12,9 - - 11 6 WSW 1029,1 11 0,0
18.09.2019 22:00:00 13,6 12,9 - - 8 4 SW 1028,8 28 0,0
18.09.2019 21:00:00 13,6 12,8 - - 8 4 SW 1028,9 28 0,0
18.09.2019 20:00:00 13,5 12,6 - - 4 2 SW 1028,5 50 0,0
18.09.2019 19:00:00 13,6 12,6 - - 8 4 WSW 1028,3 50 0,0
18.09.2019 18:00:00 13,9 12,7 - - 11 6 WSW 1028,1 45 0,0
18.09.2019 17:00:00 14,3 12,6 - - 13 7 WSW 1027,9 50 0,0
18.09.2019 16:00:00 14,8 13,0 - - 11 6 SW 1027,9 50 0,0
18.09.2019 15:00:00 15,0 13,3 - - 9 5 SW 1027,5 50 0,0
18.09.2019 14:00:00 14,9 13,3 - - 15 8 SW 1027,2 45 0,0
18.09.2019 13:00:00 15,0 13,7 - - 18 10 WSW 1026,9 30 0,0
18.09.2019 12:00:00 14,0 13,6 - - 16 9 WSW 1026,8 30 0,2
18.09.2019 11:00:00 13,5 13,2 - - 15 8 WSW 1026,3 9 0,2
18.09.2019 10:00:00 13,3 13,1 12,5 13,0 13 7 SW 1026,1 3,2 0,2
18.09.2019 09:00:00 12,7 12,4 - - 21 11 SSW 1025,7 3,5 0,0
18.09.2019 08:00:00 12,0 11,7 - - 21 11 SSW 1025,4 3,3 0,2
18.09.2019 07:00:00 11,5 11,0 - - 21 11 S 1025,1 6 0,0
18.09.2019 06:00:00 10,9 10,1 - - 29 16 S 1025,1 8 0,0
18.09.2019 05:00:00 10,5 9,1 - - 22 12 S 1025,2 10 0,0
18.09.2019 04:00:00 9,6 8,5 - - 16 9 S 1025,6 20 0,0
18.09.2019 03:00:00 9,0 8,5 - - 13 7 SSE 1026,3 23 0,4
18.09.2019 02:00:00 8,8 8,0 - - 15 8 SSE 1027,3 8 0,0
18.09.2019 01:00:00 8,9 8,0 - - 13 7 S 1027,7 8 0,2
18.09.2019 00:00:00 9,3 7,9 - - 8 4 SE 1028,3 9 0,0
17.09.2019 23:00:00 8,7 7,2 - - 9 5 ENE 1028,3 24 0,4
17.09.2019 22:00:00 9,2 7,7 - - 5 3 E 1028,5 14 0,4
17.09.2019 21:00:00 10,1 7,4 - - 2 1 SSE 1028,1 13 0,2
17.09.2019 20:00:00 10,3 6,0 - - 2 1 W 1027,9 21 0,0
17.09.2019 19:00:00 11,3 5,8 - - 5 3 W 1027,6 22 0,0
17.09.2019 18:00:00 11,9 5,6 - - 5 3 WNW 1027,4 20 0,0
17.09.2019 17:00:00 12,2 6,9 - - 9 5 SW 1027,7 24 0,0
17.09.2019 16:00:00 11,7 6,6 - - 11 6 WSW 1027,8 14 0,0
17.09.2019 15:00:00 12,1 4,9 - - 9 5 WNW 1027,8 20 0,0
17.09.2019 14:00:00 12,5 5,0 - - 13 7 WNW 1027,6 23 0,0
17.09.2019 13:00:00 12,3 5,1 - - 11 6 WNW 1027,3 24 0,0
17.09.2019 12:00:00 12,4 5,1 - - 13 7 WNW 1027,1 14 0,0
17.09.2019 11:00:00 12,2 4,7 - - 15 8 WNW 1026,7 19 0,0
17.09.2019 10:00:00 11,1 5,6 12,2 13,2 11 6 NW 1026,0 18 0,0
17.09.2019 09:00:00 10,9 7,1 - - 13 7 WNW 1025,5 17 0,0
17.09.2019 08:00:00 10,4 6,2 - - 15 8 WNW 1024,9 18 0,0
17.09.2019 07:00:00 10,3 5,9 - - 18 10 WNW 1024,2 19 0,0
17.09.2019 06:00:00 9,9 6,5 - - 16 9 NW 1024,0 16 0,2

tt = Température de l'air
td = dewpoint
tt -20cm = Température de l'air -20cm
tt -100cm = Température de l'air -100cm
ff = Vitesse du vent
dd = Direction du vent
ppp = reduced air pressure
vv = visibility
rr = Quantités de précipitations

stations d'obs. à proximité